Year,Month,Day,Hour,Minute,Value (Times are PST for temperature in C)
2020,08,15,00,00,14.20
2020,08,15,00,01,14.20
2020,08,15,00,02,14.20
2020,08,15,00,03,14.20
2020,08,15,00,04,14.20
2020,08,15,00,05,14.20
2020,08,15,00,06,14.10
2020,08,15,00,07,14.10
2020,08,15,00,08,14.10
2020,08,15,00,09,14.00
2020,08,15,00,10,14.00
2020,08,15,00,11,14.00
2020,08,15,00,12,14.00
2020,08,15,00,13,14.00
2020,08,15,00,14,14.00
2020,08,15,00,15,14.00
2020,08,15,00,16,14.00
2020,08,15,00,17,14.00
2020,08,15,00,18,14.00
2020,08,15,00,19,13.90
2020,08,15,00,20,13.90
2020,08,15,00,21,13.90
2020,08,15,00,22,13.90
2020,08,15,00,23,13.90
2020,08,15,00,24,13.90
2020,08,15,00,25,13.90
2020,08,15,00,26,13.90
2020,08,15,00,27,14.00
2020,08,15,00,28,14.00
2020,08,15,00,29,13.90
2020,08,15,00,30,13.90
2020,08,15,00,31,13.90
2020,08,15,00,32,13.90
2020,08,15,00,33,13.90
2020,08,15,00,34,13.90
2020,08,15,00,35,13.90
2020,08,15,00,36,13.90
2020,08,15,00,37,13.90
2020,08,15,00,38,13.90
2020,08,15,00,39,13.90
2020,08,15,00,40,13.90
2020,08,15,00,41,13.90
2020,08,15,00,42,13.90
2020,08,15,00,43,13.90
2020,08,15,00,44,13.90
2020,08,15,00,45,13.90
2020,08,15,00,46,13.90
2020,08,15,00,47,13.90
2020,08,15,00,48,13.90
2020,08,15,00,49,13.80
2020,08,15,00,50,13.80
2020,08,15,00,51,13.80
2020,08,15,00,52,13.80
2020,08,15,00,53,13.80
2020,08,15,00,54,13.80
2020,08,15,00,55,13.80
2020,08,15,00,56,13.80
2020,08,15,00,57,13.80
2020,08,15,00,58,13.80
2020,08,15,00,59,13.80
2020,08,15,01,00,13.80
2020,08,15,01,01,13.70
2020,08,15,01,02,13.70
2020,08,15,01,03,13.70
2020,08,15,01,04,13.70
2020,08,15,01,05,13.70
2020,08,15,01,06,13.70
2020,08,15,01,07,13.70
2020,08,15,01,08,13.70
2020,08,15,01,09,13.70
2020,08,15,01,10,13.70
2020,08,15,01,11,13.70
2020,08,15,01,12,13.70
2020,08,15,01,13,13.70
2020,08,15,01,14,13.70
2020,08,15,01,15,13.70
2020,08,15,01,16,13.70
2020,08,15,01,17,13.70
2020,08,15,01,18,13.70
2020,08,15,01,19,13.70
2020,08,15,01,20,13.70
2020,08,15,01,21,13.70
2020,08,15,01,22,13.70
2020,08,15,01,23,13.70
2020,08,15,01,24,13.70
2020,08,15,01,25,13.70
2020,08,15,01,26,13.70
2020,08,15,01,27,13.70
2020,08,15,01,28,13.70
2020,08,15,01,29,13.70
2020,08,15,01,30,13.70
2020,08,15,01,31,13.70
2020,08,15,01,32,13.70
2020,08,15,01,33,13.70
2020,08,15,01,34,13.70
2020,08,15,01,35,13.70
2020,08,15,01,36,13.70
2020,08,15,01,37,13.70
2020,08,15,01,38,13.70
2020,08,15,01,39,13.70
2020,08,15,01,40,13.70
2020,08,15,01,41,13.70
2020,08,15,01,42,13.70
2020,08,15,01,43,13.70
2020,08,15,01,44,13.70
2020,08,15,01,45,13.60
2020,08,15,01,46,13.60
2020,08,15,01,47,13.60
2020,08,15,01,48,13.60
2020,08,15,01,49,13.60
2020,08,15,01,50,13.60
2020,08,15,01,51,13.60
2020,08,15,01,52,13.60
2020,08,15,01,53,13.60
2020,08,15,01,54,13.60
2020,08,15,01,55,13.50
2020,08,15,01,56,13.50
2020,08,15,01,57,13.50
2020,08,15,01,58,13.50
2020,08,15,01,59,13.50
2020,08,15,02,00,13.50
2020,08,15,02,01,13.50
2020,08,15,02,02,13.50
2020,08,15,02,03,13.50
2020,08,15,02,04,13.50
2020,08,15,02,05,13.50
2020,08,15,02,06,13.50
2020,08,15,02,07,13.50
2020,08,15,02,08,13.50
2020,08,15,02,09,13.40
2020,08,15,02,10,13.40
2020,08,15,02,11,13.40
2020,08,15,02,12,13.40
2020,08,15,02,13,13.40
2020,08,15,02,14,13.40
2020,08,15,02,15,13.40
2020,08,15,02,16,13.40
2020,08,15,02,17,13.40
2020,08,15,02,18,13.40
2020,08,15,02,19,13.40
2020,08,15,02,20,13.40
2020,08,15,02,21,13.40
2020,08,15,02,22,13.40
2020,08,15,02,23,13.40
2020,08,15,02,24,13.30
2020,08,15,02,25,13.30
2020,08,15,02,26,13.30
2020,08,15,02,27,13.30
2020,08,15,02,28,13.30
2020,08,15,02,29,13.30
2020,08,15,02,30,13.30
2020,08,15,02,31,13.30
2020,08,15,02,32,13.30
2020,08,15,02,33,13.30
2020,08,15,02,34,13.30
2020,08,15,02,35,13.30
2020,08,15,02,36,13.30
2020,08,15,02,37,13.30
2020,08,15,02,38,13.30
2020,08,15,02,39,13.30
2020,08,15,02,40,13.30
2020,08,15,02,41,13.20
2020,08,15,02,42,13.20
2020,08,15,02,43,13.30
2020,08,15,02,44,13.30
2020,08,15,02,45,13.30
2020,08,15,02,46,13.30
2020,08,15,02,47,13.30
2020,08,15,02,48,13.30
2020,08,15,02,49,13.30
2020,08,15,02,50,13.30
2020,08,15,02,51,13.30
2020,08,15,02,52,13.20
2020,08,15,02,53,13.20
2020,08,15,02,54,13.20
2020,08,15,02,55,13.20
2020,08,15,02,56,13.20
2020,08,15,02,57,13.20
2020,08,15,02,58,13.20
2020,08,15,02,59,13.20
2020,08,15,03,00,13.20
2020,08,15,03,01,13.20
2020,08,15,03,02,13.20
2020,08,15,03,03,13.20
2020,08,15,03,04,13.20
2020,08,15,03,05,13.20
2020,08,15,03,06,13.20
2020,08,15,03,07,13.20
2020,08,15,03,08,13.20
2020,08,15,03,09,13.20
2020,08,15,03,10,13.20
2020,08,15,03,11,13.20
2020,08,15,03,12,13.20
2020,08,15,03,13,13.20
2020,08,15,03,14,13.20
2020,08,15,03,15,13.20
2020,08,15,03,16,13.20
2020,08,15,03,17,13.20
2020,08,15,03,18,13.20
2020,08,15,03,19,13.20
2020,08,15,03,20,13.20
2020,08,15,03,21,13.20
2020,08,15,03,22,13.20
2020,08,15,03,23,13.20
2020,08,15,03,24,13.20
2020,08,15,03,25,13.20
2020,08,15,03,26,13.20
2020,08,15,03,27,13.20
2020,08,15,03,28,13.20
2020,08,15,03,29,13.20
2020,08,15,03,30,13.20
2020,08,15,03,31,13.20
2020,08,15,03,32,13.20
2020,08,15,03,33,13.10
2020,08,15,03,34,13.10
2020,08,15,03,35,13.10
2020,08,15,03,36,13.10
2020,08,15,03,37,13.10
2020,08,15,03,38,13.00
2020,08,15,03,39,13.00
2020,08,15,03,40,12.90
2020,08,15,03,41,12.90
2020,08,15,03,42,12.90
2020,08,15,03,43,13.00
2020,08,15,03,44,13.00
2020,08,15,03,45,13.00
2020,08,15,03,46,13.00
2020,08,15,03,47,13.00
2020,08,15,03,48,13.00
2020,08,15,03,49,13.10
2020,08,15,03,50,13.00
2020,08,15,03,51,13.00
2020,08,15,03,52,13.00
2020,08,15,03,53,12.90
2020,08,15,03,54,12.90
2020,08,15,03,55,12.90
2020,08,15,03,56,12.90
2020,08,15,03,57,12.90
2020,08,15,03,58,12.90
2020,08,15,03,59,12.90
2020,08,15,04,00,12.90
2020,08,15,04,01,12.90
2020,08,15,04,02,12.90
2020,08,15,04,03,13.00
2020,08,15,04,04,13.00
2020,08,15,04,05,13.00
2020,08,15,04,06,13.00
2020,08,15,04,07,13.00
2020,08,15,04,08,13.00
2020,08,15,04,09,13.00
2020,08,15,04,10,12.90
2020,08,15,04,11,12.90
2020,08,15,04,12,12.90
2020,08,15,04,13,12.90
2020,08,15,04,14,12.90
2020,08,15,04,15,12.90
2020,08,15,04,16,12.90
2020,08,15,04,17,12.90
2020,08,15,04,18,12.90
2020,08,15,04,19,12.90
2020,08,15,04,20,12.90
2020,08,15,04,21,12.90
2020,08,15,04,22,12.90
2020,08,15,04,23,12.90
2020,08,15,04,24,12.90
2020,08,15,04,25,12.90
2020,08,15,04,26,12.90
2020,08,15,04,27,12.90
2020,08,15,04,28,12.90
2020,08,15,04,29,12.90
2020,08,15,04,30,12.90
2020,08,15,04,31,12.90
2020,08,15,04,32,12.90
2020,08,15,04,33,12.90
2020,08,15,04,34,12.90
2020,08,15,04,35,12.90
2020,08,15,04,36,12.80
2020,08,15,04,37,12.80
2020,08,15,04,38,12.80
2020,08,15,04,39,12.80
2020,08,15,04,40,12.90
2020,08,15,04,41,12.80
2020,08,15,04,42,12.80
2020,08,15,04,43,12.80
2020,08,15,04,44,12.80
2020,08,15,04,45,12.80
2020,08,15,04,46,12.80
2020,08,15,04,47,12.80
2020,08,15,04,48,12.80
2020,08,15,04,49,12.80
2020,08,15,04,50,12.80
2020,08,15,04,51,12.80
2020,08,15,04,52,12.80
2020,08,15,04,53,12.80
2020,08,15,04,54,12.70
2020,08,15,04,55,12.70
2020,08,15,04,56,12.70
2020,08,15,04,57,12.70
2020,08,15,04,58,12.70
2020,08,15,04,59,12.60
2020,08,15,05,00,12.60
2020,08,15,05,01,12.60
2020,08,15,05,02,12.60
2020,08,15,05,03,12.70
2020,08,15,05,04,12.70
2020,08,15,05,05,12.70
2020,08,15,05,06,12.80
2020,08,15,05,07,12.80
2020,08,15,05,08,12.70
2020,08,15,05,09,12.70
2020,08,15,05,10,12.60
2020,08,15,05,11,12.60
2020,08,15,05,12,12.70
2020,08,15,05,13,12.70
2020,08,15,05,14,12.70
2020,08,15,05,15,12.60
2020,08,15,05,16,12.60
2020,08,15,05,17,12.60
2020,08,15,05,18,12.60
2020,08,15,05,19,12.60
2020,08,15,05,20,12.60
2020,08,15,05,21,12.60
2020,08,15,05,22,12.60
2020,08,15,05,23,12.60
2020,08,15,05,24,12.60
2020,08,15,05,25,12.60
2020,08,15,05,26,12.60
2020,08,15,05,27,12.60
2020,08,15,05,28,12.70
2020,08,15,05,29,12.70
2020,08,15,05,30,12.70
2020,08,15,05,31,12.80
2020,08,15,05,32,12.80
2020,08,15,05,33,12.80
2020,08,15,05,34,12.80
2020,08,15,05,35,12.70
2020,08,15,05,36,12.70
2020,08,15,05,37,12.70
2020,08,15,05,38,12.60
2020,08,15,05,39,12.60
2020,08,15,05,40,12.60
2020,08,15,05,41,12.60
2020,08,15,05,42,12.70
2020,08,15,05,43,12.70
2020,08,15,05,44,12.60
2020,08,15,05,45,12.50
2020,08,15,05,46,12.50
2020,08,15,05,47,12.50
2020,08,15,05,48,12.60
2020,08,15,05,49,12.60
2020,08,15,05,50,12.60
2020,08,15,05,51,12.60
2020,08,15,05,52,12.70
2020,08,15,05,53,12.70
2020,08,15,05,54,12.60
2020,08,15,05,55,12.60
2020,08,15,05,56,12.50
2020,08,15,05,57,12.50
2020,08,15,05,58,12.50
2020,08,15,05,59,12.50
2020,08,15,06,00,12.50
2020,08,15,06,01,12.60
2020,08,15,06,02,12.60
2020,08,15,06,03,12.60
2020,08,15,06,04,12.60
2020,08,15,06,05,12.60
2020,08,15,06,06,12.60
2020,08,15,06,07,12.60
2020,08,15,06,08,12.60
2020,08,15,06,09,12.60
2020,08,15,06,10,12.60
2020,08,15,06,11,12.60
2020,08,15,06,12,12.60
2020,08,15,06,13,12.60
2020,08,15,06,14,12.60
2020,08,15,06,15,12.70
2020,08,15,06,16,12.70
2020,08,15,06,17,12.70
2020,08,15,06,18,12.70
2020,08,15,06,19,12.70
2020,08,15,06,20,12.70
2020,08,15,06,21,12.60
2020,08,15,06,22,12.60
2020,08,15,06,23,12.60
2020,08,15,06,24,12.50
2020,08,15,06,25,12.50
2020,08,15,06,26,12.50
2020,08,15,06,27,12.60
2020,08,15,06,28,12.70
2020,08,15,06,29,12.70
2020,08,15,06,30,12.60
2020,08,15,06,31,12.60
2020,08,15,06,32,12.60
2020,08,15,06,33,12.60
2020,08,15,06,34,12.60
2020,08,15,06,35,12.60
2020,08,15,06,36,12.60
2020,08,15,06,37,12.60
2020,08,15,06,38,12.60
2020,08,15,06,39,12.60
2020,08,15,06,40,12.60
2020,08,15,06,41,12.60
2020,08,15,06,42,12.60
2020,08,15,06,43,12.60
2020,08,15,06,44,12.60
2020,08,15,06,45,12.60
2020,08,15,06,46,12.60
2020,08,15,06,47,12.70
2020,08,15,06,48,12.70
2020,08,15,06,49,12.60
2020,08,15,06,50,12.60
2020,08,15,06,51,12.60
2020,08,15,06,52,12.60
2020,08,15,06,53,12.60
2020,08,15,06,54,12.60
2020,08,15,06,55,12.60
2020,08,15,06,56,12.60
2020,08,15,06,57,12.70
2020,08,15,06,58,12.70
2020,08,15,06,59,12.70
2020,08,15,07,00,12.70
2020,08,15,07,01,12.70
2020,08,15,07,02,12.80
2020,08,15,07,03,12.80
2020,08,15,07,04,12.80
2020,08,15,07,05,12.70
2020,08,15,07,06,12.70
2020,08,15,07,07,12.80
2020,08,15,07,08,12.80
2020,08,15,07,09,12.90
2020,08,15,07,10,12.90
2020,08,15,07,11,12.90
2020,08,15,07,12,12.90
2020,08,15,07,13,12.90
2020,08,15,07,14,12.80
2020,08,15,07,15,12.90
2020,08,15,07,16,12.90
2020,08,15,07,17,12.90
2020,08,15,07,18,12.80
2020,08,15,07,19,12.80
2020,08,15,07,20,12.80
2020,08,15,07,21,12.80
2020,08,15,07,22,12.90
2020,08,15,07,23,12.90
2020,08,15,07,24,12.90
2020,08,15,07,25,12.90
2020,08,15,07,26,13.00
2020,08,15,07,27,13.00
2020,08,15,07,28,13.00
2020,08,15,07,29,13.00
2020,08,15,07,30,12.90
2020,08,15,07,31,13.00
2020,08,15,07,32,12.90
2020,08,15,07,33,13.00
2020,08,15,07,34,13.00
2020,08,15,07,35,13.00
2020,08,15,07,36,13.10
2020,08,15,07,37,13.10
2020,08,15,07,38,13.20
2020,08,15,07,39,13.20
2020,08,15,07,40,13.30
2020,08,15,07,41,13.30
2020,08,15,07,42,13.40
2020,08,15,07,43,13.40
2020,08,15,07,44,13.50
2020,08,15,07,45,13.60
2020,08,15,07,46,13.60
2020,08,15,07,47,13.70
2020,08,15,07,48,13.70
2020,08,15,07,49,13.80
2020,08,15,07,50,13.90
2020,08,15,07,51,13.90
2020,08,15,07,52,14.00
2020,08,15,07,53,14.10
2020,08,15,07,54,14.10
2020,08,15,07,55,14.20
2020,08,15,07,56,14.20
2020,08,15,07,57,14.30
2020,08,15,07,58,14.30
2020,08,15,07,59,14.30
2020,08,15,08,00,14.40
2020,08,15,08,01,14.50
2020,08,15,08,02,14.50
2020,08,15,08,03,14.60
2020,08,15,08,04,14.70
2020,08,15,08,05,14.70
2020,08,15,08,06,14.70
2020,08,15,08,07,14.80
2020,08,15,08,08,14.90
2020,08,15,08,09,15.00
2020,08,15,08,10,15.10
2020,08,15,08,11,15.10
2020,08,15,08,12,15.20
2020,08,15,08,13,15.20
2020,08,15,08,14,15.20
2020,08,15,08,15,15.20
2020,08,15,08,16,15.30
2020,08,15,08,17,15.30
2020,08,15,08,18,15.30
2020,08,15,08,19,15.40
2020,08,15,08,20,15.40
2020,08,15,08,21,15.50
2020,08,15,08,22,15.60
2020,08,15,08,23,15.60
2020,08,15,08,24,15.70
2020,08,15,08,25,15.70
2020,08,15,08,26,15.80
2020,08,15,08,27,15.80
2020,08,15,08,28,15.90
2020,08,15,08,29,15.90
2020,08,15,08,30,16.00
2020,08,15,08,31,16.10
2020,08,15,08,32,16.20
2020,08,15,08,33,16.20
2020,08,15,08,34,16.30
2020,08,15,08,35,16.40
2020,08,15,08,36,16.40
2020,08,15,08,37,16.50
2020,08,15,08,38,16.60
2020,08,15,08,39,16.60
2020,08,15,08,40,16.70
2020,08,15,08,41,16.80
2020,08,15,08,42,16.80
2020,08,15,08,43,16.90
2020,08,15,08,44,17.00
2020,08,15,08,45,17.10
2020,08,15,08,46,17.10
2020,08,15,08,47,17.20
2020,08,15,08,48,17.20
2020,08,15,08,49,17.30
2020,08,15,08,50,17.30
2020,08,15,08,51,17.40
2020,08,15,08,52,17.50
2020,08,15,08,53,17.50
2020,08,15,08,54,17.60
2020,08,15,08,55,17.70
2020,08,15,08,56,17.80
2020,08,15,08,57,17.90
2020,08,15,08,58,17.90
2020,08,15,08,59,17.90
2020,08,15,09,00,18.00
2020,08,15,09,01,18.00
2020,08,15,09,02,18.10
2020,08,15,09,03,18.10
2020,08,15,09,04,18.10
2020,08,15,09,05,18.20
2020,08,15,09,06,18.20
2020,08,15,09,07,18.20
2020,08,15,09,08,18.30
2020,08,15,09,09,18.30
2020,08,15,09,10,18.30
2020,08,15,09,11,18.40
2020,08,15,09,12,18.40
2020,08,15,09,13,18.50
2020,08,15,09,14,18.50
2020,08,15,09,15,18.60
2020,08,15,09,16,18.70
2020,08,15,09,17,18.70
2020,08,15,09,18,18.80
2020,08,15,09,19,18.80
2020,08,15,09,20,18.90
2020,08,15,09,21,18.90
2020,08,15,09,22,19.00
2020,08,15,09,23,19.00
2020,08,15,09,24,19.10
2020,08,15,09,25,19.20
2020,08,15,09,26,19.30
2020,08,15,09,27,19.30
2020,08,15,09,28,19.40
2020,08,15,09,29,19.40
2020,08,15,09,30,19.40
2020,08,15,09,31,19.50
2020,08,15,09,32,19.50
2020,08,15,09,33,19.50
2020,08,15,09,34,19.60
2020,08,15,09,35,19.60
2020,08,15,09,36,19.60
2020,08,15,09,37,19.70
2020,08,15,09,38,19.70
2020,08,15,09,39,19.70
2020,08,15,09,40,19.80
2020,08,15,09,41,19.80
2020,08,15,09,42,19.80
2020,08,15,09,43,19.90
2020,08,15,09,44,19.90
2020,08,15,09,45,20.00
2020,08,15,09,46,20.00
2020,08,15,09,47,20.10
2020,08,15,09,48,20.10
2020,08,15,09,49,20.20
2020,08,15,09,50,20.30
2020,08,15,09,51,20.30
2020,08,15,09,52,20.40
2020,08,15,09,53,20.60
2020,08,15,09,54,20.70
2020,08,15,09,55,20.80
2020,08,15,09,56,20.90
2020,08,15,09,57,21.00
2020,08,15,09,58,21.00
2020,08,15,09,59,21.10
2020,08,15,10,00,21.10
2020,08,15,10,01,21.10
2020,08,15,10,02,21.20
2020,08,15,10,03,21.20
2020,08,15,10,04,21.30
2020,08,15,10,05,21.30
2020,08,15,10,06,21.40
2020,08,15,10,07,21.40
2020,08,15,10,08,21.40
2020,08,15,10,09,21.40
2020,08,15,10,10,21.40
2020,08,15,10,11,21.40
2020,08,15,10,12,21.40
2020,08,15,10,13,21.40
2020,08,15,10,14,21.50
2020,08,15,10,15,21.50
2020,08,15,10,16,21.60
2020,08,15,10,17,21.70
2020,08,15,10,18,21.80
2020,08,15,10,19,21.80
2020,08,15,10,20,21.80
2020,08,15,10,21,21.70
2020,08,15,10,22,21.60
2020,08,15,10,23,21.60
2020,08,15,10,24,21.50
2020,08,15,10,25,21.40
2020,08,15,10,26,21.40
2020,08,15,10,27,21.50
2020,08,15,10,28,21.50
2020,08,15,10,29,21.50
2020,08,15,10,30,21.50
2020,08,15,10,31,21.50
2020,08,15,10,32,21.50
2020,08,15,10,33,21.50
2020,08,15,10,34,21.60
2020,08,15,10,35,21.70
2020,08,15,10,36,21.70
2020,08,15,10,37,21.80
2020,08,15,10,38,21.90
2020,08,15,10,39,22.00
2020,08,15,10,40,22.00
2020,08,15,10,41,22.00
2020,08,15,10,42,22.00
2020,08,15,10,43,22.00
2020,08,15,10,44,22.00
2020,08,15,10,45,22.10
2020,08,15,10,46,22.10
2020,08,15,10,47,22.00
2020,08,15,10,48,22.00
2020,08,15,10,49,22.10
2020,08,15,10,50,22.10
2020,08,15,10,51,22.10
2020,08,15,10,52,22.10
2020,08,15,10,53,22.10
2020,08,15,10,54,22.10
2020,08,15,10,55,22.20
2020,08,15,10,56,22.30
2020,08,15,10,57,22.40
2020,08,15,10,58,22.40
2020,08,15,10,59,22.40
2020,08,15,11,00,22.30
2020,08,15,11,01,22.30
2020,08,15,11,02,22.30
2020,08,15,11,03,22.30
2020,08,15,11,04,22.30
2020,08,15,11,05,22.30
2020,08,15,11,06,22.40
2020,08,15,11,07,22.40
2020,08,15,11,08,22.50
2020,08,15,11,09,22.60
2020,08,15,11,10,22.70
2020,08,15,11,11,22.70
2020,08,15,11,12,22.80
2020,08,15,11,13,22.80
2020,08,15,11,14,22.90
2020,08,15,11,15,22.90
2020,08,15,11,16,22.90
2020,08,15,11,17,22.80
2020,08,15,11,18,22.90
2020,08,15,11,19,22.90
2020,08,15,11,20,22.90
2020,08,15,11,21,22.90
2020,08,15,11,22,22.90
2020,08,15,11,23,22.90
2020,08,15,11,24,22.90
2020,08,15,11,25,22.90
2020,08,15,11,26,22.90
2020,08,15,11,27,23.00
2020,08,15,11,28,23.10
2020,08,15,11,29,23.10
2020,08,15,11,30,23.20
2020,08,15,11,31,23.20
2020,08,15,11,32,23.30
2020,08,15,11,33,23.40
2020,08,15,11,34,23.40
2020,08,15,11,35,23.50
2020,08,15,11,36,23.60
2020,08,15,11,37,23.60
2020,08,15,11,38,23.60
2020,08,15,11,39,23.60
2020,08,15,11,40,23.60
2020,08,15,11,41,23.50
2020,08,15,11,42,23.40
2020,08,15,11,43,23.40
2020,08,15,11,44,23.30
2020,08,15,11,45,23.30
2020,08,15,11,46,23.30
2020,08,15,11,47,23.30
2020,08,15,11,48,23.30
2020,08,15,11,49,23.40
2020,08,15,11,50,23.50
2020,08,15,11,51,23.50
2020,08,15,11,52,23.50
2020,08,15,11,53,23.60
2020,08,15,11,54,23.70
2020,08,15,11,55,23.70
2020,08,15,11,56,23.70
2020,08,15,11,57,23.80
2020,08,15,11,58,23.80
2020,08,15,11,59,23.80
2020,08,15,12,00,23.70
2020,08,15,12,01,23.70
2020,08,15,12,02,23.70
2020,08,15,12,03,23.60
2020,08,15,12,04,23.50
2020,08,15,12,05,23.50
2020,08,15,12,06,23.40
2020,08,15,12,07,23.50
2020,08,15,12,08,23.50
2020,08,15,12,09,23.50
2020,08,15,12,10,23.60
2020,08,15,12,11,23.70
2020,08,15,12,12,23.70
2020,08,15,12,13,23.70
2020,08,15,12,14,23.70
2020,08,15,12,15,23.80
2020,08,15,12,16,23.80
2020,08,15,12,17,23.80
2020,08,15,12,18,23.80
2020,08,15,12,19,23.80
2020,08,15,12,20,23.90
2020,08,15,12,21,23.90
2020,08,15,12,22,24.00
2020,08,15,12,23,24.20
2020,08,15,12,24,24.20
2020,08,15,12,25,24.30
2020,08,15,12,26,24.20
2020,08,15,12,27,24.20
2020,08,15,12,28,24.20
2020,08,15,12,29,24.20
2020,08,15,12,30,24.20
2020,08,15,12,31,24.30
2020,08,15,12,32,24.40
2020,08,15,12,33,24.50
2020,08,15,12,34,24.60
2020,08,15,12,35,24.60
2020,08,15,12,36,24.70
2020,08,15,12,37,24.80
2020,08,15,12,38,24.80
2020,08,15,12,39,24.80
2020,08,15,12,40,24.90
2020,08,15,12,41,25.00
2020,08,15,12,42,25.00
2020,08,15,12,43,25.00
2020,08,15,12,44,25.00
2020,08,15,12,45,25.00
2020,08,15,12,46,24.90
2020,08,15,12,47,24.70
2020,08,15,12,48,24.60
2020,08,15,12,49,24.60
2020,08,15,12,50,24.50
2020,08,15,12,51,24.40
2020,08,15,12,52,24.50
2020,08,15,12,53,24.50
2020,08,15,12,54,24.50
2020,08,15,12,55,24.50
2020,08,15,12,56,24.40
2020,08,15,12,57,24.50
2020,08,15,12,58,24.50
2020,08,15,12,59,24.40
2020,08,15,13,00,24.40
2020,08,15,13,01,24.40
2020,08,15,13,02,24.50
2020,08,15,13,03,24.60
2020,08,15,13,04,24.70
2020,08,15,13,05,24.80
2020,08,15,13,06,24.80
2020,08,15,13,07,24.90
2020,08,15,13,08,24.90
2020,08,15,13,09,24.90
2020,08,15,13,10,24.90
2020,08,15,13,11,24.80
2020,08,15,13,12,24.70
2020,08,15,13,13,24.50
2020,08,15,13,14,24.40
2020,08,15,13,15,24.40
2020,08,15,13,16,24.30
2020,08,15,13,17,24.30
2020,08,15,13,18,24.30
2020,08,15,13,19,24.30
2020,08,15,13,20,24.20
2020,08,15,13,21,24.10
2020,08,15,13,22,24.00
2020,08,15,13,23,24.00
2020,08,15,13,24,23.90
2020,08,15,13,25,23.90
2020,08,15,13,26,23.90
2020,08,15,13,27,24.00
2020,08,15,13,28,24.10
2020,08,15,13,29,24.10
2020,08,15,13,30,24.10
2020,08,15,13,31,24.20
2020,08,15,13,32,24.20
2020,08,15,13,33,24.30
2020,08,15,13,34,24.40
2020,08,15,13,35,24.50
2020,08,15,13,36,24.60
2020,08,15,13,37,24.60
2020,08,15,13,38,24.70
2020,08,15,13,39,24.90
2020,08,15,13,40,24.90
2020,08,15,13,41,24.90
2020,08,15,13,42,24.80
2020,08,15,13,43,24.80
2020,08,15,13,44,24.80
2020,08,15,13,45,24.80
2020,08,15,13,46,24.80
2020,08,15,13,47,24.80
2020,08,15,13,48,24.80
2020,08,15,13,49,24.80
2020,08,15,13,50,24.80
2020,08,15,13,51,24.80
2020,08,15,13,52,24.80
2020,08,15,13,53,24.70
2020,08,15,13,54,24.70
2020,08,15,13,55,24.60
2020,08,15,13,56,24.50
2020,08,15,13,57,24.50
2020,08,15,13,58,24.40
2020,08,15,13,59,24.40
2020,08,15,14,00,24.30
2020,08,15,14,01,24.30
2020,08,15,14,02,24.30
2020,08,15,14,03,24.30
2020,08,15,14,04,24.10
2020,08,15,14,05,24.10
2020,08,15,14,06,24.10
2020,08,15,14,07,24.10
2020,08,15,14,08,24.10
2020,08,15,14,09,24.10
2020,08,15,14,10,24.10
2020,08,15,14,11,24.10
2020,08,15,14,12,24.20
2020,08,15,14,13,24.30
2020,08,15,14,14,24.30
2020,08,15,14,15,24.40
2020,08,15,14,16,24.50
2020,08,15,14,17,24.60
2020,08,15,14,18,24.60
2020,08,15,14,19,24.60
2020,08,15,14,20,24.50
2020,08,15,14,21,24.50
2020,08,15,14,22,24.50
2020,08,15,14,23,24.50
2020,08,15,14,24,24.40
2020,08,15,14,25,24.40
2020,08,15,14,26,24.50
2020,08,15,14,27,24.70
2020,08,15,14,28,24.70
2020,08,15,14,29,24.70
2020,08,15,14,30,24.60
2020,08,15,14,31,24.60
2020,08,15,14,32,24.50
2020,08,15,14,33,24.50
2020,08,15,14,34,24.30
2020,08,15,14,35,24.20
2020,08,15,14,36,24.20
2020,08,15,14,37,24.20
2020,08,15,14,38,24.30
2020,08,15,14,39,24.40
2020,08,15,14,40,24.40
2020,08,15,14,41,24.50
2020,08,15,14,42,24.50
2020,08,15,14,43,24.50
2020,08,15,14,44,24.40
2020,08,15,14,45,24.30
2020,08,15,14,46,24.20
2020,08,15,14,47,24.20
2020,08,15,14,48,24.30
2020,08,15,14,49,24.50
2020,08,15,14,50,24.60
2020,08,15,14,51,24.70
2020,08,15,14,52,24.70
2020,08,15,14,53,24.80
2020,08,15,14,54,24.80
2020,08,15,14,55,24.70
2020,08,15,14,56,24.80
2020,08,15,14,57,24.80
2020,08,15,14,58,24.80
2020,08,15,14,59,24.80
2020,08,15,15,00,24.80
2020,08,15,15,01,24.80
2020,08,15,15,02,24.70
2020,08,15,15,03,24.60
2020,08,15,15,04,24.60
2020,08,15,15,05,24.50
2020,08,15,15,06,24.40
2020,08,15,15,07,24.30
2020,08,15,15,08,24.30
2020,08,15,15,09,24.20
2020,08,15,15,10,24.30
2020,08,15,15,11,24.30
2020,08,15,15,12,24.30
2020,08,15,15,13,24.40
2020,08,15,15,14,24.50
2020,08,15,15,15,24.60
2020,08,15,15,16,24.70
2020,08,15,15,17,24.80
2020,08,15,15,18,24.80
2020,08,15,15,19,24.90
2020,08,15,15,20,24.90
2020,08,15,15,21,24.90
2020,08,15,15,22,24.90
2020,08,15,15,23,24.90
2020,08,15,15,24,24.90
2020,08,15,15,25,24.90
2020,08,15,15,26,24.80
2020,08,15,15,27,24.80
2020,08,15,15,28,24.80
2020,08,15,15,29,24.90
2020,08,15,15,30,25.00
2020,08,15,15,31,25.00
2020,08,15,15,32,25.00
2020,08,15,15,33,25.00
2020,08,15,15,34,24.90
2020,08,15,15,35,24.80
2020,08,15,15,36,24.80
2020,08,15,15,37,24.80
2020,08,15,15,38,24.80
2020,08,15,15,39,24.80
2020,08,15,15,40,24.80
2020,08,15,15,41,24.80
2020,08,15,15,42,24.80
2020,08,15,15,43,24.80
2020,08,15,15,44,24.90
2020,08,15,15,45,25.00
2020,08,15,15,46,25.00
2020,08,15,15,47,25.10
2020,08,15,15,48,25.20
2020,08,15,15,49,25.30
2020,08,15,15,50,25.40
2020,08,15,15,51,25.40
2020,08,15,15,52,25.40
2020,08,15,15,53,25.50
2020,08,15,15,54,25.50
2020,08,15,15,55,25.60
2020,08,15,15,56,25.60
2020,08,15,15,57,25.50
2020,08,15,15,58,25.50
2020,08,15,15,59,25.50
2020,08,15,16,00,25.50
2020,08,15,16,01,25.70
2020,08,15,16,02,25.70
2020,08,15,16,03,25.80
2020,08,15,16,04,25.90
2020,08,15,16,05,25.90
2020,08,15,16,06,26.00
2020,08,15,16,07,26.10
2020,08,15,16,08,26.20
2020,08,15,16,09,26.20
2020,08,15,16,10,26.30
2020,08,15,16,11,26.40
2020,08,15,16,12,26.40
2020,08,15,16,13,26.40
2020,08,15,16,14,26.40
2020,08,15,16,15,26.30
2020,08,15,16,16,26.30
2020,08,15,16,17,26.20
2020,08,15,16,18,26.20
2020,08,15,16,19,26.20
2020,08,15,16,20,26.20
2020,08,15,16,21,26.20
2020,08,15,16,22,26.20
2020,08,15,16,23,26.30
2020,08,15,16,24,26.30
2020,08,15,16,25,26.30
2020,08,15,16,26,26.30
2020,08,15,16,27,26.30
2020,08,15,16,28,26.30
2020,08,15,16,29,26.30
2020,08,15,16,30,26.30
2020,08,15,16,31,26.10
2020,08,15,16,32,26.00
2020,08,15,16,33,25.90
2020,08,15,16,34,26.00
2020,08,15,16,35,26.10
2020,08,15,16,36,26.20
2020,08,15,16,37,26.20
2020,08,15,16,38,26.30
2020,08,15,16,39,26.30
2020,08,15,16,40,26.40
2020,08,15,16,41,26.40
2020,08,15,16,42,26.40
2020,08,15,16,43,26.40
2020,08,15,16,44,26.40
2020,08,15,16,45,26.50
2020,08,15,16,46,26.50
2020,08,15,16,47,26.60
2020,08,15,16,48,26.70
2020,08,15,16,49,26.70
2020,08,15,16,50,26.70
2020,08,15,16,51,26.60
2020,08,15,16,52,26.40
2020,08,15,16,53,26.30
2020,08,15,16,54,26.10
2020,08,15,16,55,26.00
2020,08,15,16,56,25.90
2020,08,15,16,57,25.80
2020,08,15,16,58,25.70
2020,08,15,16,59,25.70
2020,08,15,17,00,25.70
2020,08,15,17,01,25.70
2020,08,15,17,02,25.70
2020,08,15,17,03,25.80
2020,08,15,17,04,25.80
2020,08,15,17,05,25.90
2020,08,15,17,06,25.90
2020,08,15,17,07,25.80
2020,08,15,17,08,25.80
2020,08,15,17,09,25.70
2020,08,15,17,10,25.70
2020,08,15,17,11,25.70
2020,08,15,17,12,25.70
2020,08,15,17,13,25.50
2020,08,15,17,14,25.40
2020,08,15,17,15,25.40
2020,08,15,17,16,25.40
2020,08,15,17,17,25.40
2020,08,15,17,18,25.40
2020,08,15,17,19,25.50